Flag for United Arab Emirates Weather past 2 weeks in Sharjah, Sharjah, United Arab Emirates

Now
55 °F

Clear.


Feels Like: 55 °F
Forecast: 67 / 81 °F
Wind: 5 mph from East

Location: Sharjah International Airport

Current Time: Jan 30, 2015 at 7:07:06 AM

Latest Report: Jan 30, 2015 at 6:00 AM


Visibility: 10 mi

Pressure: 30.07 "Hg

Humidity: 72%

Dew point: 46 °F

Location of SharjahLocation

Historic Weather in Sharjah — Graph

°F

Sharjah temperature yesterday

Maximum temperature yesterday: 82 °F (at 1:00 PM)
Minimum temperature yesterday: 54 °F (at 7:00 AM)
Average temperature yesterday: 68 °F

Past Weeks' High & Low Weather Summary

 TemperatureHumidityPressure
High82 °F (Jan 29, 1:00 PM)88% (Jan 18, 5:00 AM)30.24 "Hg (Jan 18, 5:00 AM)
Low50 °F (Jan 15, 6:00 AM)20% (Jan 29, 1:00 PM)29.59 "Hg (Jan 23, 10:00 AM)
Average65 °F60%30.10 "Hg
* Reported Jan 15 5:00 AM — Jan 30 5:00 AM, Sharjah, Weather by CustomWeather, © 2014

Note: Actual official high and low records may vary slightly from our data, if they occured in-between our weather recording intervals... More about our weather records

Advertising

Sharjah weather history for previous 24 hours

 ConditionsComfort  
Time TempWeatherWind HumidityBarometerVisibility
5:00 AM
Jan 30
55 °FClear.5 mph72%30.07 "Hg10 mi
4:00 AM57 °FClear.7 mph67%30.04 "Hg10 mi
3:00 AM59 °FClear.7 mph68%30.04 "Hg5 mi
2:00 AM59 °FClear.6 mph72%30.07 "Hg5 mi
1:00 AM61 °FClear.5 mph72%30.07 "Hg5 mi
12:00 AM63 °FClear.7 mph73%30.09 "Hg5 mi
11:00 PM
Jan 29
61 °FClear.6 mph77%30.09 "Hg10 mi
10:00 PM64 °FClear.6 mph73%30.09 "Hg10 mi
9:00 PM66 °FClear.3 mph68%30.09 "Hg10 mi
8:00 PM68 °FClear.3 mph60%30.07 "Hg10 mi
7:00 PM72 °FClear.5 mph47%30.07 "Hg10 mi
6:00 PM75 °FClear.8 mph34%30.04 "Hg10 mi
5:00 PM79 °FSunny.10 mph28%30.04 "Hg10 mi
4:00 PM81 °FSunny.12 mph24%30.04 "Hg10 mi
3:00 PM82 °FSunny.9 mph21%30.04 "Hg10 mi
2:00 PM82 °FSunny.3 mph20%30.04 "Hg10 mi
1:00 PM82 °FSunny.3 mph20%30.07 "Hg10 mi
12:00 PM81 °FSunny.2 mph21%30.09 "Hg10 mi
11:00 AM79 °FSunny.5 mph23%30.12 "Hg10 mi
10:00 AM73 °FClear.6 mph36%30.09 "Hg4 mi
9:00 AM64 °FClear.5 mph60%30.09 "Hg4 mi
8:00 AM57 °FHaze.6 mph72%30.07 "Hg2 mi
7:00 AM54 °FHaze.6 mph88%30.04 "Hg1 mi
Weather by CustomWeather, © 2014

See weather overviewHow to use our weather pages